Regional Weather Roundup
Issued by NWS

Home | Current Version | Previous Version | Text Only | Print | Product List | Glossary On
Versions: 1 2 3 4 5 6 7 8 9 10 11 12 13 14 15 16 17 18 19 20 21 22 23 24 25 26 27 28 29 30 31 32 33 34 35 36 37 38 39 40 41 42 43 44 45 46 47 48 49 50
000
ASUS43 KTOP 210559
RWRKS

WEATHER ROUNDUP FOR KANSAS
NATIONAL WEATHER SERVICE GOODLAND KS
100 AM CDT SUN SEP 21 2014

NOTE:  "FAIR" INDICATES FEW OR NO CLOUDS BELOW 12,000 FEET WITH NO
SIGNIFICANT WEATHER AND/OR OBSTRUCTIONS TO VISIBILITY.

KSZ001>006-013>018-027>032-041>047-210700-
NORTHWEST KANSAS

CITY           SKY/WX    TMP DP  RH WIND       PRES   REMARKS
GOODLAND       PTCLDY    59  50  72 NE9       30.26R
6HR MIN TEMP:  55; 6HR MAX TEMP:  70;

HAYS           CLEAR     64  55  72 NE7       30.12R
HILL CITY      CLEAR     67  51  56 NE10      30.17R
6HR MIN TEMP:  61; 6HR MAX TEMP:  85;

RUSSELL        CLEAR     66  61  84 CALM      30.09S
6HR MIN TEMP:  64; 6HR MAX TEMP:  84;

$$

KSZ061>065-074>080-084>089-210700-
SOUTHWEST KANSAS

CITY           SKY/WX    TMP DP  RH WIND       PRES   REMARKS
DODGE CITY     LGT RAIN  72  57  59 NE16      30.13R
6HR MIN TEMP:  72; 6HR MAX TEMP:  88; 6HR PCP: TRACE;

ELKHART          N/A     69  60  73 N6          N/A
GARDEN CITY    CLEAR     67  60  78 NE10      30.16R
6HR MIN TEMP:  67; 6HR MAX TEMP:  85;

GREAT BEND     PTCLDY    68  63  83 N3        30.09R
LIBERAL        CLEAR     75  63  64 E9        30.15R
$$

KSZ066>073-081>083-090>101-210700-
SOUTHEAST KANSAS

CITY           SKY/WX    TMP DP  RH WIND       PRES   REMARKS
CHANUTE        CLOUDY    73  70  90 CALM      30.03R
6HR MIN TEMP:  73; 6HR MAX TEMP:  81; 6HR PCP: TRACE;

HUTCHINSON     MOCLDY    72  66  81 N3        30.05R
6HR MIN TEMP:  70; 6HR MAX TEMP:  88;

NEWTON         MOCLDY    70  63  78 E5        30.09R
PARSONS        CLOUDY    74  70  87 W3        30.03R
6HR MIN TEMP:  74; 6HR MAX TEMP:  81;

WICHITA INTL   CLOUDY    74  69  85 CALM      30.05R
6HR MIN TEMP:  73; 6HR MAX TEMP:  88; 6HR PCP:  0.01;

WICHITA JABRA  CLOUDY    72  67  84 CALM      30.05R
6HR MIN TEMP:  70; 6HR MAX TEMP:  87; 6HR PCP: TRACE;

WICHITA MCCONL CLOUDY    75  70  83 NE5       30.06R HAZE
WINFIELD       MOCLDY    75  67  76 E6        30.05S
6HR MIN TEMP:  75; 6HR MAX TEMP:  84;

$$

KSZ007>012-019>026-033>040-048>060-102>105-210700-
NORTHEAST KANSAS

CITY           SKY/WX    TMP DP  RH WIND       PRES   REMARKS
CONCORDIA      CLEAR     66  56  70 N8        30.10R
6HR MIN TEMP:  63; 6HR MAX TEMP:  83;

EMPORIA        PTCLDY    68  66  93 W3        30.04R
6HR MIN TEMP:  67; 6HR MAX TEMP:  77; 6HR PCP:  0.02;

LAWRENCE       FOG       62  62 100 N3        30.01S VSB 1/4
6HR MIN TEMP:  61; 6HR MAX TEMP:  74;

MANHATTAN      CLEAR     65  64  97 CALM      30.04R
6HR MIN TEMP:  64; 6HR MAX TEMP:  75;

OLATHE IND     CLEAR     69  67  93 W6        30.02R
6HR MIN TEMP:  67; 6HR MAX TEMP:  76;

OLATHE EXE     CLEAR     70  67  90 W5        30.00S
6HR MIN TEMP:  70; 6HR MAX TEMP:  77;

SALINA         CLEAR     69  66  90 CALM      30.05S
6HR MIN TEMP:  68; 6HR MAX TEMP:  82;

TOPEKA BILLARD CLEAR     66  65  96 W5        30.02R
6HR MIN TEMP:  64; 6HR MAX TEMP:  76;

TOPEKA FORBES  CLEAR     64  63  96 CALM      30.02S
6HR MIN TEMP:  63; 6HR MAX TEMP:  74;

$$


USA.gov is the U.S. government's official web portal to all federal, state and local government web resources and services.